Regional Weather Roundup
Issued by NWS

Home | Current Version | Previous Version | Text Only | Print | Product List | Glossary On
Versions: 1 2 3 4 5 6 7 8 9 10 11 12 13 14 15 16 17 18 19 20 21 22 23 24 25 26 27
000
ASUS45 KBOU 241407
RWRCO

WEATHER ROUNDUP FOR COLORADO
NATIONAL WEATHER SERVICE DENVER/BOULDER CO
800 AM MDT WED MAY 24 2017

NOTE: "FAIR" INDICATES FEW OR NO CLOUDS BELOW 12000 FEET WITH NO
SIGNIFICANT WEATHER AND/OR OBSTRUCTIONS TO VISIBILITY.

COZ001>005-013-030-031-241500-
...NORTHWEST COLORADO...

CITY           SKY/WX    TMP DP  RH WIND       PRES   REMARKS
CRAIG          FAIR      46  36  68 CALM      30.00F
HAYDEN         FAIR      45  30  57 E13       30.01F
MEEKER         FAIR      48  34  58 CALM      30.03F
RABBIT EARS PA FAIR      36  32  87 W9G20     30.16F
STEAMBOAT SPGS FAIR      40  34  79 CALM      30.02F
WALDEN           N/A     50  32  50 S8        30.04F
$$

COZ006>008-011-241500-
...WEST CENTRAL VALLEYS...

CITY           SKY/WX    TMP DP  RH WIND       PRES   REMARKS
GRAND JUNCTION FAIR      58  34  40 E10       29.99S
MONTROSE       FAIR      54  35  48 SE6       30.05F
EAGLE          SUNNY     39  32  75 CALM      30.10F
RIFLE          FAIR      47  33  58 CALM      30.04F
DELTA          FAIR      56  31  38 NE8       30.03F
NUCLA          FAIR      54  32  43 E7        30.09F
$$

COZ017>023-064>068-241500-
...SOUTHWEST COLORADO...

CITY           SKY/WX    TMP DP  RH WIND       PRES   REMARKS
DURANGO        FAIR      48  26  42 E3        30.09R
CORTEZ         FAIR      53  37  54 N3        30.05F
PAGOSA SPRINGS FAIR      48  24  38 CALM      30.13F
TELLURIDE      FAIR      46  33  61 E3        30.23S
WOLF CREEK PAS FAIR      36  27  69 SW12      30.34S
$$

COZ009-010-012-014-032>034-037-058>063-241500-
...CENTRAL COLORADO...

CITY           SKY/WX    TMP DP  RH WIND       PRES   REMARKS
ASPEN          FAIR      44  30  57 CALM      30.09S
BUENA VISTA    FAIR      55  31  39 NW10      30.04F
COPPER MTN     CLOUDY    37  30  75 W13G22    30.24S
BERTHOUD PASS  FAIR      28  19  69 NW35G47   30.17F WCI  12
COTTONWOOD PAS FAIR      52  27  37 W20G35    30.14R
GUNNISON       FAIR      38  25  59 CALM      30.15S
KREMMLING      FAIR      43  34  70 CALM      30.09F
LEADVILLE      FAIR      42  27  55 VRB7      30.14S
MONARCH PASS   FAIR      32  25  74 W38       30.34S WCI  16
SALIDA         FAIR      55  24  29 NW5       30.10F
SUNLIGHT       FAIR      37  27  65 SW9G17    30.25S
WILKERSON PASS FAIR      37  27  65 NW10G16   30.19S
$$

COZ069>075-241500-
...SAN LUIS VALLEY/SANGRE DE CRISTO MOUNTAINS...

CITY           SKY/WX    TMP DP  RH WIND       PRES   REMARKS
ALAMOSA        FAIR      49  25  39 S7        30.08F
DEL NORTE      FAIR      48  28  46 NE5       30.10F
LA VETA PASS   FAIR      37  21  52 MISG      30.23S
SAGUACHE       FAIR      45  23  42 SE5       30.11S
$$

COZ035-036-038>040-241500-
...NORTHERN COLORADO FRONT RANGE...

CITY           SKY/WX    TMP DP  RH WIND       PRES   REMARKS
DENVER INTL AP FAIR      57  37  47 VRB3      29.83F
DMNS CITY PARK   N/A     56  34  44 SW3G10    29.83S
AURORA         MOSUNNY   57  35  43 S7        29.84F
FRONT RANGE AP MOSUNNY   57  41  54 S6        29.84F
ERIE MUNI ARPT FAIR      48  40  73 CALM      29.83F
BOULDER MUN AP FAIR      50  37  62 NE3       29.82F
CENTENNIAL     FAIR      57  42  57 SE6       29.84F
BROOMFIELD     MOSUNNY   50  37  62 N3        29.84S
FORT COLLINS   FAIR      48  38  68 CALM      29.82F
LONGMONT       FAIR      53  40  62 CALM      29.84F
$$

COZ041-046-047-076>085-087-088-241500-
...PIKES PEAK/PALMER DIVIDE AND SOUTHERN FOOTHILLS...

CITY           SKY/WX    TMP DP  RH WIND       PRES   REMARKS
COLO. SPRINGS  FAIR      54  35  48 N6        29.91F
A. F. ACADEMY  FAIR      47  34  61 CALM      29.91F
SCHRIEVER AFB  FAIR      51  34  51 CALM      29.91F
CHEYENNE MTN   FAIR      56  29  35 SE9       29.87F
ELLICOTT       FAIR     N/A N/A N/A S6        29.89F
FALCON         FAIR      50  34  54 SW5       29.93F
FORT CARSON    FAIR      49  35  56 N7        29.89F
LIMON          FAIR      51  39  63 SE3       29.87F
MONUMENT HILL  FAIR      54  37  54 SW5       29.93S
CANON CITY     NOT AVBL
WALSENBURG     FAIR      61  32  33 W13G20    29.92F
TRINIDAD       FAIR      55  34  45 W16       29.91F
$$

COZ042>045-048>051-090-091-241500-
...NORTHEAST COLORADO...

CITY           SKY/WX    TMP DP  RH WIND       PRES   REMARKS
GREELEY ARPT   FAIR      46  39  76 CALM      29.83F
AKRON          FAIR      52  36  54 S7        29.84F
BURLINGTON     FAIR      50  39  66 S7        29.87F
WRAY           FAIR      50  39  66 SE8       29.85F
YUMA           FAIR      46  39  76 SE7       29.83F
STERLING       FAIR      45  37  76 SW5       29.82F
HOLYOKE        NOT AVBL
FORT MORGAN    FAIR      48  38  68 SW5       29.83F
$$

COZ086-089-092>099-241500-
...SOUTHEAST COLORADO...

CITY           SKY/WX    TMP DP  RH WIND       PRES   REMARKS
PUEBLO         FAIR      51  39  63 CALM      29.86F
LA JUNTA       FAIR      51  39  63 SW7       29.87F
LAMAR          FAIR      50  41  71 CALM      29.86F
SPRINGFIELD      N/A     56  38  50 SW7       29.88F
$$




USA.gov is the U.S. government's official web portal to all federal, state and local government web resources and services.